Theta_e
328 328 328 327 327 327 325 325 326 325 325 322 324 322 322 322 322 321 322 322 320 321 321 321 320 322 322 322 321 321 321 322 322 320 320 320 320 320 321 324 327 329 329 328 329 330 329 328 328 328 329 330 330 330 330 330 330 329 327 325 324 325 324 324 324 325 325 328 328 327 328 327 326 324 323 323 323 323 323 323 323 323 323 323 323
327 327 326 326 325 326 325 325 324 324 324 321 321 322 321 321 322 321 321 321 321 321 321 321 321 321 320 322 322 323 322 320 321 321 321 321 321 322 318 321 325 329 329 328 329 329 328 328 328 328 330 330 330 330 330 330 329 328 327 326 324 324 324 324 324 326 327 328 327 326 326 326 324 323 323 323 323 323 323 323 323 323 323 322 322
327 327 326 327 327 326 326 325 325 324 325 324 321 322 323 321 321 322 321 320 321 320 320 321 321 321 321 321 322 322 322 322 320 321 322 320 320 320 318 319 322 326 330 329 328 328 328 328 328 327 328 327 328 329 329 329 329 328 327 325 325 326 325 324 325 327 327 327 325 325 325 324 323 323 323 323 323 323 323 323 323 323 323 322 322
329 327 326 325 325 325 325 325 325 325 326 325 325 326 323 321 321 320 320 321 318 318 319 319 320 322 321 322 322 322 321 321 321 321 321 320 319 320 320 318 318 322 325 329 329 329 328 329 328 327 327 327 327 328 328 328 328 327 326 326 325 326 326 325 326 328 327 326 325 323 323 323 323 322 322 322 322 322 323 322 322 322 321 321 321
330 328 325 325 324 325 325 325 325 325 324 325 326 325 324 321 321 319 318 316 316 318 319 320 319 320 320 321 322 322 323 322 321 321 321 321 320 319 321 319 318 318 320 322 326 329 329 329 328 327 327 328 329 328 328 328 328 328 326 325 325 326 327 327 327 328 327 325 325 324 323 323 323 321 322 321 321 321 322 322 322 322 322 321 320
329 328 326 326 325 325 325 325 325 325 326 326 325 324 323 322 319 318 318 315 314 317 317 318 318 318 319 320 319 321 322 322 321 321 321 321 321 320 320 320 319 318 317 318 321 325 330 330 329 328 327 327 327 330 329 328 328 327 326 326 326 327 327 328 328 328 328 325 324 323 323 322 323 321 321 321 321 321 321 321 321 321 321 321 320
328 327 325 323 323 324 324 325 325 324 325 325 325 324 323 322 319 318 317 316 316 317 318 318 318 319 320 319 319 320 321 321 321 321 321 321 321 320 320 320 320 320 319 317 316 319 324 330 330 329 328 327 326 326 329 328 328 327 326 327 326 327 329 329 328 328 328 326 324 322 322 323 323 321 321 321 321 320 320 320 321 321 321 320 320
327 327 326 324 323 322 322 323 324 324 323 323 324 323 323 323 321 320 317 317 317 317 318 318 319 319 320 320 319 319 320 320 320 320 321 321 320 320 320 320 320 320 318 319 317 316 319 324 329 330 328 327 327 326 327 329 329 328 328 327 328 329 329 329 329 328 327 326 324 323 322 323 322 321 321 321 321 320 320 320 320 320 320 320 319
327 327 326 325 323 322 320 321 322 322 322 322 323 323 323 323 322 320 319 317 318 318 318 319 319 319 319 319 320 320 319 320 320 320 321 320 320 320 320 320 319 316 319 319 319 318 317 318 324 328 328 328 328 327 327 329 330 331 330 329 328 329 330 329 330 329 327 326 324 323 322 322 322 322 321 321 320 320 320 319 319 319 319 319 319
326 326 326 325 324 323 321 321 321 321 321 321 321 322 322 322 321 321 320 319 318 318 318 319 319 320 319 319 319 319 319 319 319 315 318 319 319 320 320 319 319 319 319 319 319 318 319 317 319 321 321 324 328 328 328 328 329 329 329 329 328 328 329 331 330 329 328 326 325 323 322 322 321 322 322 321 320 320 319 319 319 319 319 319 319
326 325 325 325 324 324 323 322 321 320 320 319 319 319 320 320 320 321 321 320 319 319 318 318 319 319 319 318 318 319 319 319 319 318 317 317 318 319 320 319 319 319 320 319 318 318 318 318 317 318 319 319 324 328 328 328 327 327 327 329 328 328 328 330 330 329 329 327 325 323 322 322 322 322 321 320 320 320 319 319 319 319 318 318 318
325 325 325 324 324 324 323 322 321 320 319 319 318 317 317 317 318 318 318 319 320 319 318 317 315 312 313 315 315 315 316 316 317 318 318 317 317 317 318 319 319 318 319 320 319 319 319 319 315 318 318 318 319 322 325 328 326 327 326 327 327 328 328 328 329 330 329 328 326 324 323 322 322 322 321 321 321 320 319 319 318 318 318 318 318
323 324 324 322 324 324 324 323 322 321 320 319 319 318 318 318 317 316 316 317 317 319 318 316 313 311 310 312 313 315 315 315 316 317 318 318 317 316 316 316 317 318 318 319 319 319 319 320 319 318 318 318 317 317 319 323 323 328 327 326 327 328 327 328 328 328 329 328 327 325 324 322 322 322 322 322 321 320 319 319 318 317 318 317 317
323 324 323 323 323 323 323 322 321 321 321 320 319 316 317 317 318 316 317 316 316 317 317 316 311 310 307 306 308 313 315 315 315 316 316 317 317 315 315 315 316 317 318 318 319 319 320 320 320 319 319 319 318 317 317 318 319 325 327 327 326 327 328 327 327 327 327 328 328 327 326 323 322 322 322 322 322 321 320 319 318 318 318 318 317
324 323 323 323 323 323 322 321 320 320 319 318 318 317 317 317 317 316 315 316 316 316 317 317 312 308 307 305 304 303 304 310 314 315 315 315 315 315 315 314 316 316 317 318 318 319 320 320 320 320 320 319 319 318 317 315 316 318 325 326 326 328 328 327 327 326 326 328 327 327 325 323 322 322 322 322 322 322 321 319 319 318 318 317 317
324 324 323 323 323 322 322 320 320 319 319 317 317 316 316 316 317 317 316 313 314 314 316 316 315 311 303 306 303 300 299 302 309 313 315 315 315 315 315 316 316 316 316 317 317 319 320 319 320 319 319 320 319 318 318 316 316 317 318 319 322 326 327 327 327 326 326 327 328 326 325 323 322 322 322 322 322 322 321 320 319 318 318 317 317
323 324 322 323 323 322 321 320 320 320 319 318 317 317 317 317 317 317 316 315 312 312 314 315 316 315 309 304 302 301 300 301 307 308 313 313 314 315 315 316 317 317 316 316 317 319 319 320 320 319 319 319 319 318 317 317 316 314 316 315 320 323 325 327 327 326 325 325 327 326 325 323 322 322 322 322 322 322 321 321 320 319 319 318 317
322 322 322 321 321 321 321 320 320 320 320 319 318 317 317 317 317 317 316 316 314 312 312 313 315 315 314 310 305 301 301 304 304 300 310 314 314 314 315 316 317 316 317 317 317 318 318 320 319 319 319 319 319 318 317 316 315 314 314 315 320 322 323 325 326 326 325 325 326 326 326 324 323 322 322 322 322 321 321 321 321 320 319 319 318
322 323 322 321 321 321 321 321 321 321 320 320 318 318 318 318 318 318 317 317 315 312 312 312 311 314 315 314 313 309 308 307 303 302 302 303 309 312 312 312 315 315 316 317 318 318 317 318 318 318 318 319 319 318 317 316 317 315 318 318 321 323 324 323 324 324 324 324 325 326 325 325 323 322 322 322 322 322 321 321 321 320 320 319 319
322 322 323 322 320 321 322 321 321 321 320 320 319 319 319 319 318 319 318 317 316 314 313 313 311 311 313 313 312 312 310 309 308 306 300 299 303 309 310 311 312 314 315 316 316 317 317 316 317 317 317 318 318 317 317 317 315 315 316 320 322 323 324 324 323 322 323 323 324 326 325 325 324 323 323 323 323 322 322 321 320 320 320 319 319
323 323 323 323 320 321 322 322 321 321 319 321 320 319 319 319 319 318 318 317 317 316 314 314 313 312 311 311 312 311 311 311 310 310 307 301 304 306 306 308 309 310 313 314 315 316 317 317 316 316 317 317 317 317 317 316 316 314 316 321 323 324 324 324 323 323 322 321 322 323 325 325 326 325 324 323 323 323 322 322 321 321 321 320 319
323 323 322 323 322 321 321 322 322 322 319 321 320 320 319 319 320 319 319 317 317 316 316 315 315 314 313 312 310 310 309 309 309 309 308 308 305 301 304 308 307 307 312 313 314 314 315 315 314 314 316 316 316 316 316 315 316 314 314 317 323 324 325 324 324 323 322 322 321 321 322 324 325 325 324 324 323 322 322 322 321 321 321 320 320
323 322 322 323 323 321 321 322 322 321 320 321 321 320 320 320 320 320 319 318 317 317 315 315 315 314 314 313 312 311 310 308 308 309 308 305 305 306 305 305 306 303 308 313 314 314 314 314 314 315 315 315 315 315 315 315 310 311 309 311 316 322 324 324 324 323 322 322 322 321 321 322 323 324 324 324 324 323 323 322 322 321 321 320 320
322 322 322 322 322 322 321 321 321 322 322 322 322 322 321 321 321 320 319 319 318 316 316 315 315 315 315 315 314 313 312 311 310 311 309 308 307 306 304 302 304 306 305 308 311 314 314 315 316 316 316 315 315 315 315 315 314 308 308 308 313 318 323 325 324 324 323 322 322 321 321 322 322 322 323 324 324 323 323 323 322 321 321 321 320
322 321 322 322 321 321 321 320 320 321 322 322 322 322 321 321 321 320 320 319 318 317 316 316 316 315 315 316 315 314 313 313 311 310 311 310 308 306 304 303 303 301 306 307 308 311 314 315 316 316 316 315 315 314 314 314 313 308 305 307 308 313 319 324 325 324 323 322 322 321 321 322 322 322 322 323 323 323 323 323 322 323 322 321 320
322 322 322 322 321 321 321 321 321 321 321 322 322 322 322 321 320 320 320 320 319 318 317 316 317 316 316 315 315 315 315 314 313 311 310 309 307 306 303 302 304 303 302 304 307 309 310 313 316 316 315 315 315 314 313 313 313 306 302 308 308 309 313 318 323 324 324 323 322 321 321 321 321 322 322 322 322 322 322 322 322 322 321 321 320
323 323 322 322 321 321 321 321 321 321 320 320 321 321 321 321 320 320 320 321 320 319 318 317 316 316 316 316 315 315 315 314 314 313 312 311 310 308 306 304 304 304 303 306 307 309 309 311 314 315 315 314 315 314 313 312 309 305 300 308 310 306 309 314 320 323 324 323 322 322 321 320 321 322 321 321 321 321 322 322 322 322 321 321 320
323 323 323 322 322 321 320 320 321 321 320 320 320 321 321 320 320 319 319 320 320 319 319 318 317 316 316 316 315 315 315 315 314 314 313 312 311 310 310 308 305 301 301 304 305 307 310 311 310 312 314 314 314 314 310 310 312 305 298 307 309 307 306 310 316 320 323 323 322 322 321 321 320 321 321 321 320 319 319 320 320 320 320 318 317
324 323 323 322 322 321 321 320 320 320 320 320 320 320 320 320 319 319 319 319 319 319 319 318 318 318 317 316 316 316 315 315 314 314 314 313 313 312 312 310 308 305 301 302 305 305 307 312 309 310 313 314 314 314 313 312 308 305 304 305 307 307 305 308 313 318 320 322 322 322 321 321 321 321 321 321 320 319 319 319 320 319 319 319 319
324 324 323 322 322 318 321 320 320 320 320 320 320 320 320 320 320 319 320 319 318 318 318 318 318 319 318 317 317 316 316 315 315 314 313 313 313 313 313 312 312 309 306 303 302 306 306 311 312 310 311 314 314 313 312 311 304 304 305 305 306 307 304 305 310 314 316 318 319 320 321 321 321 321 321 321 320 319 319 318 319 319 319 319 319
322 323 322 322 322 321 321 320 320 320 320 320 320 320 320 320 319 319 319 319 318 318 318 318 318 318 318 317 318 317 317 317 316 315 313 313 314 313 313 313 313 313 311 308 304 305 311 309 312 314 313 313 314 312 311 310 305 305 305 305 305 302 302 302 305 309 311 313 316 318 319 320 320 320 321 321 321 321 320 319 318 318 318 318 318
323 323 322 322 322 321 321 320 320 320 320 320 320 319 320 319 319 319 319 318 318 317 317 318 318 318 317 317 317 317 317 317 316 316 316 315 315 315 315 315 315 315 313 312 308 306 307 310 313 315 315 313 311 310 308 305 304 301 305 305 305 300 302 301 300 303 307 311 314 315 316 317 319 319 320 320 321 321 321 320 319 319 318 317 317
322 322 322 322 322 322 321 320 320 319 319 319 320 319 319 319 319 319 318 318 317 317 317 317 317 318 317 317 317 317 318 316 316 317 317 317 317 317 317 316 315 315 314 312 309 308 308 309 311 314 314 313 309 309 306 303 301 301 301 301 301 301 301 300 299 298 302 305 308 310 312 314 315 316 318 318 319 319 320 320 320 319 318 315 314
322 322 321 321 321 322 321 320 320 320 320 319 319 319 318 318 318 319 318 317 317 316 317 316 317 318 318 317 317 317 318 317 317 316 317 317 317 316 315 315 315 314 316 313 311 309 307 306 309 310 310 311 309 306 308 303 301 296 297 298 298 297 298 299 299 299 299 301 304 305 308 310 310 311 311 311 314 315 316 316 313 309 308 308 307
321 321 321 321 321 321 321 320 320 320 320 319 319 319 318 318 317 317 317 317 316 316 316 316 316 317 316 316 316 317 317 316 316 316 315 315 316 314 314 315 314 314 314 314 312 309 308 307 309 308 307 307 309 308 307 306 303 300 299 297 297 297 296 296 297 297 299 300 302 303 304 306 307 307 308 308 308 308 308 309 307 306 306 305 305
320 320 320 321 321 320 320 319 319 319 319 319 319 319 319 318 317 317 317 316 316 316 316 316 316 316 316 315 315 316 315 315 315 315 314 314 314 314 314 314 314 314 313 313 314 311 307 306 303 307 307 305 301 302 305 301 300 298 298 296 296 296 296 297 295 294 296 300 301 301 302 303 304 305 305 306 306 306 306 306 305 304 304 303 304
319 319 318 319 320 320 320 319 319 319 319 319 319 318 318 318 317 317 316 316 316 316 316 316 310 315 315 315 315 315 315 314 314 314 314 314 314 314 314 314 313 313 313 313 313 312 310 307 303 303 302 301 296 297 300 299 294 294 294 294 296 297 297 297 296 297 296 298 298 298 299 300 301 302 303 304 304 303 304 303 302 302 301 301 301
318 318 318 317 318 318 318 319 319 318 318 318 318 318 317 317 317 317 316 316 315 316 316 316 316 316 315 315 315 315 314 314 313 314 314 314 314 314 313 313 313 312 312 312 312 311 310 310 308 300 297 299 295 294 295 297 296 293 292 293 294 295 295 295 295 295 295 295 294 294 296 297 298 300 301 301 302 301 301 301 300 299 298 298 299
317 316 316 316 316 317 317 318 318 318 318 317 318 318 317 317 317 316 316 315 315 316 316 316 316 316 316 316 315 315 315 315 314 314 314 313 313 313 313 313 311 311 311 311 309 308 308 308 305 304 301 294 295 297 291 293 291 292 293 292 292 292 292 294 293 292 293 293 293 294 294 294 294 295 296 298 298 299 299 299 298 298 297 298 299
315 316 316 316 316 315 317 317 317 317 317 317 317 317 317 317 316 315 315 314 314 315 316 316 316 316 316 316 316 316 315 315 315 315 314 313 313 312 313 312 311 310 310 309 308 308 307 305 305 300 295 297 290 287 288 289 292 292 291 293 295 292 292 292 292 291 289 290 289 288 290 291 291 293 294 295 296 296 297 296 296 295 295 296 297
315 315 315 315 315 314 314 315 315 316 316 317 317 317 316 316 317 316 316 315 314 314 315 315 316 316 316 316 316 316 312 306 305 306 307 307 313 312 312 311 310 310 310 309 308 307 305 305 302 299 296 294 292 291 289 290 293 297 294 293 295 293 292 291 291 291 289 288 288 288 288 288 289 289 289 289 292 294 293 294 294 293 294 295 295
312 313 313 314 314 314 314 314 315 316 316 317 309 306 308 315 317 317 316 315 314 314 314 314 314 315 315 316 315 303 302 300 300 301 302 302 304 310 312 311 310 310 309 307 305 305 302 301 302 299 297 297 293 293 294 294 296 293 291 292 292 289 290 289 289 289 289 289 288 287 287 288 288 288 289 289 290 291 290 291 291 292 293 294 294
311 311 312 314 313 314 314 313 314 315 316 315 305 305 306 306 313 317 316 316 315 314 314 313 313 312 314 315 315 305 301 298 300 299 301 301 301 302 303 303 304 311 309 306 305 305 301 303 302 299 299 298 296 295 297 296 294 296 294 293 293 291 290 290 290 287 289 289 287 287 287 288 288 287 288 288 288 288 288 289 291 291 291 291 291
308 307 310 313 313 312 313 313 313 313 314 306 305 304 304 305 305 314 316 316 315 315 314 313 313 312 312 313 313 313 310 311 310 305 301 299 299 300 300 300 301 302 305 308 304 300 302 299 298 300 299 299 298 294 295 294 294 294 294 293 293 293 291 291 290 289 288 290 288 287 286 286 286 287 286 286 285 285 287 289 290 290 290 291 291
302 307 310 310 311 310 310 312 311 311 311 306 304 304 303 303 303 307 316 315 315 314 313 313 312 312 311 311 311 312 312 299 302 311 309 304 297 297 298 298 298 300 302 302 303 306 305 303 301 298 299 299 297 296 296 296 297 295 293 292 293 293 293 293 292 285 286 288 288 286 285 285 285 286 284 284 284 283 285 289 290 290 290 290 290
305 306 305 307 309 311 311 311 310 311 311 304 303 302 302 302 302 303 314 315 314 313 313 313 312 312 311 310 310 310 309 305 307 310 310 308 306 302 301 303 304 300 298 300 299 299 302 306 304 302 301 299 300 299 298 298 297 296 293 292 293 292 291 293 289 287 287 287 288 287 285 285 285 285 282 282 283 282 282 287 288 289 289 289 289
304 307 308 308 309 308 311 311 311 311 312 303 302 302 301 300 301 301 310 313 313 312 312 312 312 312 312 311 310 310 308 307 306 306 307 306 305 303 302 301 302 301 301 302 302 303 303 305 305 305 303 301 302 299 299 300 301 300 298 297 295 293 288 286 286 286 285 285 285 287 286 285 284 284 282 281 280 279 279 287 289 289 290 290 290
300 301 304 306 308 308 309 310 311 311 311 302 301 301 301 301 300 303 308 310 311 311 312 312 312 312 312 312 310 309 308 307 300 299 302 305 305 300 297 298 298 297 298 297 298 300 302 304 304 304 302 301 300 299 298 300 299 292 290 289 289 288 288 288 286 285 285 286 285 286 284 284 284 282 280 279 278 277 278 279 287 287 288 288 289
297 299 302 303 304 306 306 306 308 309 310 302 299 300 300 301 300 306 307 307 309 310 311 311 311 311 311 311 310 310 308 305 299 299 300 300 303 298 297 295 297 295 295 291 293 295 296 297 297 298 298 298 299 299 298 298 295 293 291 290 289 289 290 288 286 285 286 285 284 285 285 283 283 280 278 277 277 277 277 278 281 288 288 288 289
296 297 299 300 301 301 303 304 305 306 307 301 297 298 299 299 300 306 306 306 306 307 309 309 310 310 308 297 299 308 307 305 298 298 299 299 301 296 295 294 292 292 292 288 290 290 292 293 294 294 295 296 297 297 297 297 295 293 293 292 290 291 291 290 287 286 284 284 285 285 285 283 282 280 277 276 276 275 276 278 281 284 287 287 288
296 298 297 298 299 299 299 300 294 300 303 299 296 297 297 298 298 305 305 304 304 305 306 305 301 303 303 297 295 301 304 301 298 298 298 298 302 296 296 294 293 293 293 289 290 289 289 289 289 291 291 291 293 293 293 294 293 292 296 294 291 292 291 290 288 285 284 284 286 286 284 280 280 279 277 274 271 274 275 276 279 279 280 280 282
Wind_Speed
5 5 6 6 5 4 5 5 6 5 6 5 5 4 5 6 5 5 5 5 4 4 4 4 4 5 6 5 4 4 4 5 4 4 4 4 3 7 11 10 9 10 9 9 9 9 8 9 9 6 6 5 5 4 4 5 6 5 5 4 4 2 2 2 3 3 4 4 6 8 8 8 6 5 4 5 5 6 6 7 7 7 8 8 8
5 5 6 5 5 4 4 4 4 4 3 3 3 3 4 4 5 5 5 5 5 7 6 6 6 5 5 6 6 6 6 5 5 5 5 5 6 4 12 11 12 10 10 10 11 10 9 8 7 7 8 7 7 6 5 5 6 6 5 5 5 4 2 2 1 2 4 6 7 7 7 6 5 5 5 6 6 5 7 8 7 7 7 8 8
6 6 6 6 6 5 5 4 4 5 5 5 3 4 5 4 4 6 5 4 5 5 6 5 6 6 6 6 6 5 5 6 5 5 5 6 7 5 7 14 13 12 11 12 12 11 11 9 9 8 8 8 7 8 8 6 6 6 6 5 6 6 4 4 3 4 6 7 6 6 7 6 6 6 6 6 6 6 7 7 7 7 7 7 7
4 5 7 6 6 6 5 5 5 6 6 5 5 5 5 4 4 3 4 4 3 3 3 5 6 6 5 6 6 6 6 6 6 6 5 5 6 6 6 8 12 13 13 13 13 13 12 11 10 9 8 8 8 8 9 9 8 6 6 7 7 7 7 6 6 6 8 7 6 6 6 7 6 5 6 7 6 7 7 7 7 7 7 7 7
7 5 6 7 6 7 7 6 6 6 5 5 5 4 4 4 5 4 3 2 2 4 4 5 4 4 5 4 6 6 7 6 7 7 6 6 7 7 6 6 7 12 14 13 13 13 14 13 12 10 9 9 10 10 9 9 10 8 8 8 7 8 8 9 8 8 9 8 8 7 7 7 7 7 7 7 7 7 7 7 7 6 6 7 7
9 7 6 6 7 7 7 7 6 5 6 6 6 5 5 4 5 5 6 4 4 4 5 6 6 5 5 5 5 6 6 7 7 7 7 7 7 6 7 6 7 7 8 13 14 13 13 14 14 13 11 9 9 11 11 10 10 9 9 9 9 8 8 10 10 10 11 9 8 9 9 9 9 8 7 7 8 7 7 7 6 6 6 6 6
8 8 6 6 6 7 7 7 6 5 6 6 6 6 6 6 6 7 5 5 5 5 6 7 7 7 7 7 7 7 7 7 7 7 7 7 7 6 7 7 7 7 7 7 10 14 14 14 15 14 13 11 10 9 11 12 11 12 11 10 9 10 10 11 11 11 12 11 9 9 9 9 10 9 8 8 8 8 8 8 7 6 6 6 6
8 8 7 6 7 7 7 6 7 7 6 6 6 7 7 7 6 7 6 6 7 7 7 7 7 7 7 7 7 7 7 7 7 7 7 7 7 6 7 7 7 7 7 7 7 9 15 14 15 14 14 13 12 11 11 12 12 12 12 12 11 11 11 12 12 12 13 12 10 9 9 11 10 9 9 10 9 9 9 8 8 7 6 6 6
10 9 8 7 6 6 6 6 6 7 7 6 7 6 6 7 7 7 7 7 8 8 8 8 8 8 7 7 7 7 6 7 7 7 6 7 7 7 7 7 7 7 7 7 7 7 12 16 14 15 14 14 14 13 12 12 14 15 15 14 12 12 11 13 13 13 14 12 11 11 9 11 11 11 11 10 10 10 9 9 8 7 7 6 6
11 9 8 8 6 6 6 7 7 7 7 7 7 6 7 7 7 7 7 7 7 7 8 8 8 7 8 8 8 7 7 7 7 6 7 7 7 7 8 7 7 7 7 7 6 7 7 12 16 15 16 15 15 15 14 14 15 16 16 15 15 13 12 12 14 15 15 14 12 12 11 11 11 12 12 12 11 10 10 9 8 8 7 7 6
11 10 9 9 8 7 8 8 7 8 7 7 8 8 8 8 9 8 8 9 8 7 7 6 6 6 6 7 6 7 7 7 7 7 7 7 7 8 7 8 7 7 7 7 7 6 7 6 7 7 10 15 14 15 15 16 14 14 15 16 16 15 15 13 13 14 16 16 14 13 13 13 13 13 12 12 12 11 10 9 9 8 8 7 6
11 11 10 10 10 9 9 8 8 8 9 9 9 8 10 10 10 9 8 8 9 8 7 7 5 4 4 5 5 5 5 6 6 7 7 8 8 7 8 7 7 7 7 7 7 7 7 6 7 8 7 11 15 14 15 15 13 13 14 14 16 16 16 15 14 13 16 17 15 14 13 14 13 13 13 13 12 11 11 10 9 9 8 7 6
12 12 12 11 10 9 9 9 9 9 10 11 10 9 9 9 8 8 9 9 8 8 8 5 5 5 4 5 6 5 7 7 9 9 9 8 7 8 8 7 7 7 7 7 7 8 7 7 7 7 8 7 10 15 15 14 13 13 16 15 15 16 16 16 15 15 14 17 16 16 17 14 14 13 14 12 12 11 11 11 10 9 9 8 7
11 12 11 12 11 10 11 11 10 10 10 9 9 9 9 9 8 8 8 10 8 6 8 7 6 8 4 4 5 6 10 11 12 11 11 9 9 8 7 8 8 7 7 7 7 7 7 8 7 7 8 7 8 7 9 10 11 14 16 16 15 16 16 16 16 16 13 15 18 17 17 14 15 15 14 13 12 12 12 11 10 10 9 9 9
12 13 12 12 12 12 12 11 12 10 10 11 11 11 11 11 11 10 7 8 8 6 7 11 7 4 2 2 6 3 4 6 8 10 10 11 8 9 8 8 8 7 7 7 7 7 7 7 7 7 7 7 7 7 7 8 10 13 15 15 15 16 16 16 15 14 13 12 18 17 15 15 16 16 14 14 14 13 13 12 12 11 11 10 11
13 13 12 13 14 14 12 11 12 11 11 11 11 12 11 11 11 11 8 8 9 9 8 8 7 9 3 8 4 2 8 6 8 8 11 10 9 10 7 8 8 7 7 8 7 7 7 7 7 7 7 7 7 7 7 7 12 14 15 15 14 15 16 16 15 13 12 12 15 16 16 16 15 15 14 14 15 15 13 12 12 12 12 12 12
13 14 14 15 14 14 13 13 12 12 11 12 12 13 12 11 12 11 12 11 9 7 8 8 10 9 8 3 1 2 6 3 4 6 6 7 9 10 9 9 7 7 7 6 5 7 7 7 7 7 7 7 7 7 7 8 8 8 11 14 14 15 15 16 15 13 12 12 13 14 17 16 15 15 14 14 15 15 14 14 14 14 13 13 13
13 14 14 13 14 15 13 13 13 12 12 12 11 10 12 13 14 13 13 12 9 7 8 7 9 10 11 7 5 5 2 2 1 4 0 6 7 8 9 8 7 7 6 6 6 7 7 8 7 8 7 7 7 7 6 7 8 7 7 9 14 15 15 16 15 14 12 13 13 14 17 17 15 15 14 15 15 15 15 14 15 15 14 14 14
14 13 13 14 13 13 14 13 12 12 11 11 12 14 12 13 11 12 13 11 10 10 11 9 6 9 10 12 10 4 2 1 3 2 4 2 3 5 5 4 6 6 6 7 7 7 6 7 7 7 7 7 7 7 6 7 9 10 11 11 16 16 16 16 15 14 13 13 13 14 17 18 17 16 15 16 16 16 16 15 15 15 15 15 15
14 14 14 14 14 13 13 12 13 13 12 13 14 12 10 10 12 13 11 11 13 13 10 8 13 10 10 10 10 9 5 4 4 3 2 2 3 1 2 4 4 6 7 8 8 8 8 7 7 7 7 7 7 7 7 7 6 7 8 14 16 16 17 16 15 14 13 12 13 14 16 19 19 17 17 18 19 19 18 17 15 16 16 16 16
14 14 15 14 14 14 14 13 14 14 12 12 12 12 14 13 13 13 13 12 12 12 10 10 10 10 8 10 8 9 8 8 6 6 7 4 9 5 4 2 3 5 6 6 7 7 8 7 7 7 7 7 7 7 7 7 7 7 8 15 17 17 18 17 16 15 13 12 12 12 13 18 21 19 19 19 18 18 19 19 18 17 17 17 16
15 15 15 15 15 16 15 16 15 13 12 13 12 13 14 13 14 14 13 14 11 11 13 10 9 7 10 8 9 7 6 6 8 8 6 8 10 5 6 7 8 6 7 7 7 7 7 7 6 6 7 7 7 7 7 8 7 7 9 16 18 19 19 18 18 16 14 12 11 11 13 14 18 20 20 18 18 18 19 19 19 18 17 17 17
12 13 16 15 15 15 15 15 13 12 12 13 13 13 13 13 13 13 14 16 12 12 11 11 10 9 10 10 11 12 12 11 11 10 10 8 7 12 7 6 8 4 5 8 7 7 7 7 7 7 7 7 7 7 7 8 9 10 14 16 17 17 18 19 18 18 16 15 14 13 13 14 15 16 17 18 19 19 18 18 19 18 18 17 17
11 12 14 15 14 13 15 14 14 14 14 13 12 12 12 12 12 12 12 14 13 12 12 12 13 10 10 10 11 10 10 10 8 9 10 11 10 10 7 4 4 5 2 4 5 7 8 9 8 8 7 7 7 7 8 8 9 15 13 15 17 17 18 19 20 19 19 17 16 15 14 14 15 15 16 16 16 18 19 19 18 18 18 18 18
12 14 14 16 14 14 15 15 15 16 15 14 13 13 12 12 13 13 12 13 14 14 13 14 14 13 12 10 9 10 12 9 8 9 8 7 8 9 7 5 8 3 4 4 5 5 8 9 9 8 8 8 7 7 7 8 8 12 14 10 17 16 18 20 20 21 20 19 17 16 15 15 15 15 15 15 17 18 17 18 20 20 19 17 18
14 15 14 14 14 16 15 15 15 13 13 14 13 13 12 12 12 13 14 12 11 14 14 13 12 13 10 10 11 10 9 9 10 9 10 9 9 11 6 4 4 6 2 3 3 4 5 7 8 7 7 7 8 8 7 8 8 12 14 10 11 16 17 18 19 20 21 20 19 17 16 15 15 15 15 15 16 17 19 19 20 20 18 17 17
14 13 12 14 16 14 14 14 14 14 13 13 12 12 12 11 10 12 11 11 11 13 13 14 13 13 12 12 10 10 9 8 8 10 9 11 10 9 9 8 4 5 6 5 5 9 4 3 5 6 7 7 8 8 8 7 9 12 12 10 7 14 16 17 18 19 20 20 20 19 18 17 16 16 15 14 14 16 17 20 21 19 19 19 18
12 12 14 14 15 16 15 15 15 14 14 14 13 12 12 12 11 11 12 10 11 13 13 13 15 14 12 11 10 12 9 8 8 9 9 8 8 8 9 10 10 7 4 8 7 8 5 6 4 6 7 8 8 8 9 9 7 11 11 7 7 8 14 16 18 18 19 19 19 19 19 19 18 18 17 14 12 10 10 10 11 12 4 2 2
11 12 12 13 15 16 15 16 15 15 14 14 15 13 12 12 12 13 13 11 11 13 11 12 13 13 12 13 12 11 10 8 8 8 8 8 8 8 9 11 9 8 7 8 10 8 5 8 6 5 6 7 8 7 7 7 8 8 7 7 7 6 11 16 16 16 19 19 19 20 20 20 19 19 17 15 13 12 12 11 10 9 10 12 13
11 10 12 13 13 15 15 15 15 15 15 14 14 14 13 12 13 13 12 10 10 10 11 11 12 11 12 12 12 11 10 9 10 8 7 8 8 8 8 7 8 11 8 9 8 6 5 7 7 5 4 7 7 7 7 7 9 10 6 7 7 7 11 15 16 16 18 19 18 18 20 20 19 18 17 16 16 15 14 13 12 13 13 14 14
11 12 12 12 13 14 14 15 14 15 15 14 14 14 14 13 13 13 12 12 11 11 11 11 11 11 13 15 13 13 11 11 10 8 7 7 8 8 8 7 8 9 8 7 7 4 7 8 7 7 6 6 7 6 5 6 8 10 7 7 7 9 11 11 15 16 16 16 16 16 16 18 17 18 18 18 18 17 16 15 15 15 14 14 16
13 12 12 13 13 14 14 14 14 14 15 14 14 14 14 13 13 12 13 13 13 13 12 11 10 11 13 15 15 13 12 10 10 10 9 8 8 8 8 8 9 9 8 8 10 10 5 6 7 8 7 5 5 7 5 4 6 11 6 7 7 8 7 4 9 12 13 14 16 16 14 16 16 19 19 18 19 20 19 19 18 18 17 16 14
12 12 13 13 13 14 14 14 15 15 15 15 14 14 14 14 13 13 13 14 15 13 11 12 12 12 13 14 14 14 12 12 11 10 10 11 10 9 9 9 10 9 10 10 12 10 4 4 4 6 6 6 4 6 6 5 5 5 4 4 4 5 5 3 3 7 9 10 11 12 12 13 14 15 15 16 17 19 20 20 20 19 16 10 4
12 14 13 12 12 13 13 15 15 15 15 16 15 14 15 15 15 12 13 14 14 14 12 13 14 12 12 13 14 13 12 13 12 12 11 10 11 10 10 10 10 11 11 11 11 8 8 3 5 1 4 5 8 5 10 8 6 4 4 3 3 3 3 3 3 1 4 6 6 6 7 9 9 10 12 12 11 10 8 6 4 5 8 9 8
11 12 12 12 12 12 13 13 14 14 15 16 15 15 15 16 16 15 14 14 15 15 15 16 15 13 13 15 15 12 10 12 13 12 10 11 10 11 11 10 11 11 10 11 8 9 8 7 6 6 5 4 7 8 7 6 6 7 7 5 4 2 2 2 2 2 4 3 4 4 5 7 8 8 7 7 7 7 6 6 7 7 8 9 9
12 11 11 12 12 12 13 13 14 15 15 15 15 15 16 16 16 16 15 14 14 15 15 15 15 14 15 14 15 14 12 12 13 11 10 10 11 11 11 11 11 11 9 7 9 7 6 7 5 6 7 7 4 1 4 3 5 4 5 3 3 4 3 3 3 3 3 5 4 4 5 5 6 7 6 4 4 3 3 5 7 7 7 8 8
11 10 10 10 12 12 13 14 15 15 15 15 15 15 15 15 16 15 15 15 15 15 15 15 14 14 14 15 15 13 13 14 13 13 12 13 11 11 11 10 10 9 8 9 8 7 7 8 6 5 5 3 1 2 5 6 3 3 2 3 4 5 4 4 3 3 5 6 5 4 4 3 4 4 5 5 2 1 3 4 5 6 7 8 8
11 11 11 10 11 12 13 14 14 14 13 14 15 15 15 14 14 15 14 15 15 14 14 14 14 14 15 15 13 13 14 16 15 13 12 14 12 12 12 10 9 8 9 9 9 9 10 10 9 5 2 6 3 1 2 4 7 4 2 1 1 2 4 3 2 3 2 2 2 1 1 1 2 2 3 3 3 3 3 2 2 4 4 4 4
10 10 9 10 10 11 12 11 12 12 13 13 14 14 14 14 15 15 15 15 14 14 14 14 14 14 14 14 14 14 15 15 15 14 13 12 12 12 12 11 9 9 10 9 7 8 9 9 7 7 7 3 3 7 1 1 3 4 6 4 3 2 1 5 4 2 2 3 3 4 2 2 2 2 1 2 2 2 2 1 2 2 3 3 2
11 11 11 11 11 10 11 11 12 11 12 13 13 13 13 14 14 15 15 15 15 14 14 14 14 14 14 14 14 15 15 14 14 13 12 12 10 11 10 10 9 10 9 8 9 10 9 8 8 7 5 7 1 3 2 2 2 1 3 6 8 5 6 3 4 6 2 3 2 1 3 4 3 4 4 4 3 2 3 3 3 2 1 1 2
10 11 10 11 11 11 11 11 11 11 12 13 12 13 13 15 15 16 16 16 15 14 14 14 14 14 13 13 14 14 15 16 17 14 14 13 11 12 10 10 10 11 10 10 10 10 10 8 8 5 7 6 6 7 5 5 9 11 6 6 5 3 4 4 1 2 3 3 2 3 2 3 3 2 2 1 1 2 2 3 3 3 3 3 4
8 9 9 10 11 13 12 12 12 12 12 11 14 20 18 14 14 14 14 14 15 14 14 13 13 13 14 13 13 18 18 18 17 17 17 17 18 14 11 10 11 11 11 10 10 9 8 8 9 8 8 9 8 9 8 9 6 4 5 7 6 3 5 4 1 1 2 4 4 3 2 3 4 4 4 4 2 4 3 3 3 4 4 4 4
8 8 9 11 11 11 13 13 14 13 13 12 19 19 21 22 16 14 14 14 14 14 13 13 13 13 13 13 11 13 15 15 15 19 18 19 19 18 16 16 15 13 11 11 10 8 8 9 8 8 10 10 9 8 10 8 6 8 7 7 7 7 7 6 5 1 4 6 3 3 3 3 4 5 4 4 3 4 4 4 7 7 5 4 4
7 6 9 11 10 10 10 11 12 13 13 16 19 19 20 22 20 15 13 12 12 12 12 12 12 11 11 11 11 10 11 13 12 13 16 19 19 19 19 17 18 19 17 14 11 9 11 9 8 10 9 11 9 8 8 6 8 7 7 8 8 9 8 8 6 6 4 8 5 4 4 1 2 4 4 3 5 4 4 7 8 7 7 6 6
6 8 9 8 10 8 8 11 12 12 12 16 18 19 20 21 21 18 12 12 12 12 11 12 11 11 10 10 10 10 10 17 14 13 12 13 15 19 19 18 18 19 18 18 16 14 9 10 10 10 11 9 9 10 9 10 7 8 6 6 7 8 8 8 7 4 5 7 5 4 4 3 3 4 6 3 5 4 4 6 8 8 8 7 7
7 7 7 9 9 9 10 11 11 10 11 13 16 17 18 19 19 17 13 12 11 11 11 11 11 11 11 11 10 11 8 11 12 13 12 12 11 11 12 12 11 14 16 19 18 18 14 11 10 12 10 8 11 10 10 8 10 9 8 8 8 8 9 8 3 4 5 6 7 5 4 3 3 5 5 3 4 4 3 5 8 8 8 7 7
7 8 8 8 9 9 10 10 10 11 11 12 15 17 17 16 16 14 11 11 10 10 10 11 12 12 12 12 11 11 10 11 11 13 12 10 9 10 10 10 9 8 9 9 9 9 9 8 10 10 9 11 9 8 8 10 12 11 12 11 12 9 6 6 5 5 3 1 2 2 4 4 3 5 4 5 4 4 2 5 8 9 9 9 9
6 6 7 7 9 10 10 10 11 12 10 12 15 16 16 15 16 11 11 11 12 11 11 10 11 12 12 13 12 12 12 12 13 18 16 11 10 11 10 9 8 6 7 7 9 10 9 10 10 10 9 11 12 10 9 10 8 6 7 8 9 8 8 6 6 4 4 3 2 3 5 5 3 6 4 4 4 4 2 3 7 9 9 10 10
7 9 9 8 8 9 10 10 11 11 10 11 15 16 16 16 13 11 11 11 12 12 13 12 11 11 11 13 13 13 12 12 14 17 17 15 12 12 11 9 9 8 8 3 1 4 6 6 6 7 8 9 11 12 14 15 12 10 8 8 8 9 9 8 4 5 7 4 3 2 4 6 5 4 5 2 3 4 3 3 3 9 12 12 13
8 9 8 9 9 8 10 10 11 11 10 8 13 15 16 17 15 12 10 10 11 11 11 10 10 10 12 17 14 12 12 11 15 19 18 15 10 10 10 9 8 8 6 3 3 3 4 6 7 8 10 11 12 13 14 16 17 14 12 11 11 10 10 10 9 7 3 3 5 4 5 6 6 5 6 3 5 2 3 3 4 6 10 10 13
8 7 7 9 9 8 8 9 10 12 10 8 12 14 16 16 15 11 10 10 11 11 10 10 7 8 8 11 17 15 13 13 18 18 19 17 12 11 11 10 10 10 10 9 8 6 5 4 3 5 3 6 7 8 9 16 19 16 12 9 10 11 10 8 8 7 2 4 6 6 6 5 8 5 7 5 2 0 1 3 4 5 5 5 5
Wind_Direction
190 176 180 203 211 201 189 199 191 173 164 182 185 226 207 201 222 220 210 213 213 230 223 230 229 224 217 230 230 229 232 241 248 255 258 242 213 205 208 197 195 202 221 238 247 256 263 269 263 272 268 268 278 284 273 249 233 259 278 292 298 274 316 330 265 259 241 197 177 165 163 171 162 167 169 146 151 146 129 124 121 119 114 110 103
192 189 180 198 199 205 204 208 180 169 158 198 200 234 241 208 216 216 212 215 217 220 210 218 226 227 223 218 219 217 216 222 231 230 231 234 236 222 200 199 199 202 208 224 237 246 254 256 265 260 260 260 264 260 259 268 258 266 282 281 289 269 219 197 237 203 186 177 163 167 166 173 168 176 182 155 145 143 145 134 128 126 122 117 113
197 188 184 191 192 193 208 213 189 179 175 192 206 224 247 238 217 210 209 228 235 229 218 218 219 218 221 223 223 213 221 225 229 228 223 223 229 213 202 203 200 204 202 212 225 237 243 248 254 252 248 251 260 254 255 246 252 259 266 272 264 250 217 203 205 216 183 180 161 171 182 177 185 186 174 165 159 160 149 140 137 135 130 124 120
215 194 183 189 187 186 200 211 204 184 182 182 196 229 239 254 271 242 208 208 239 281 264 233 227 222 217 219 218 217 220 225 231 235 226 221 222 225 192 206 210 204 205 208 216 226 233 237 237 252 261 249 249 257 255 255 257 259 253 257 243 238 229 193 195 197 194 180 178 188 191 191 176 187 182 167 168 165 157 152 146 142 138 135 130
217 218 188 183 185 182 195 208 202 184 178 178 190 232 249 256 273 289 284 285 287 277 291 287 267 251 234 232 216 218 217 219 228 230 226 221 220 223 216 197 208 215 209 207 215 217 225 227 228 229 239 254 255 251 250 249 249 250 254 249 240 240 222 200 187 184 207 194 202 197 197 194 175 192 185 174 174 176 167 161 157 152 150 145 139
204 225 201 189 185 185 192 201 200 183 178 184 194 206 230 219 242 265 258 247 249 252 260 265 259 257 250 247 243 229 215 217 223 226 225 222 218 218 224 214 200 205 214 217 214 217 219 222 223 221 222 234 254 256 252 246 244 247 245 250 238 236 233 195 193 199 206 210 206 213 211 201 190 191 188 184 179 179 177 173 168 168 162 156 147
200 211 217 197 188 192 196 194 187 184 182 185 188 195 217 221 202 228 234 223 223 233 231 234 233 231 231 226 228 235 224 220 218 223 224 225 217 217 216 220 218 197 204 206 222 218 217 220 220 219 219 219 228 240 244 246 243 241 238 243 245 234 228 209 204 205 203 202 215 211 227 211 199 199 198 195 190 193 187 182 181 182 175 167 160
196 200 211 209 197 196 196 184 182 184 192 182 185 197 203 222 215 206 217 217 207 223 228 235 231 233 231 223 223 221 223 222 222 223 224 221 222 221 218 219 218 217 197 202 203 213 218 219 219 218 217 221 224 232 239 243 240 234 236 234 236 245 234 222 213 211 209 207 203 191 222 217 203 202 205 201 194 193 197 192 191 193 189 178 174
195 195 205 212 205 196 196 192 187 183 185 191 193 196 205 215 218 212 211 217 207 215 219 223 228 229 228 230 228 226 227 222 221 222 224 224 226 222 223 221 221 218 217 201 193 202 213 218 219 215 213 216 222 226 231 232 232 228 228 235 236 241 246 234 217 211 213 207 208 198 213 220 214 212 206 206 200 197 198 199 198 200 197 193 188
192 192 199 206 207 201 199 197 192 186 184 189 200 195 207 222 229 217 218 226 225 217 219 217 219 222 222 224 224 221 228 230 227 227 222 231 227 223 220 220 217 217 216 215 205 191 197 214 217 215 213 211 214 220 226 230 238 240 241 240 237 239 241 238 229 216 212 209 207 216 210 225 221 222 213 207 206 205 202 203 204 204 205 201 198
190 189 194 201 207 209 204 200 189 191 190 191 195 197 202 212 227 223 218 225 224 228 231 227 230 227 225 224 219 222 223 226 226 228 233 233 230 228 222 222 218 214 213 210 208 201 189 193 207 213 217 214 212 216 222 228 233 241 241 238 237 237 237 235 236 228 218 213 210 209 203 213 220 222 216 215 212 210 209 209 205 208 211 210 208
188 189 193 199 205 210 209 198 194 189 196 201 202 199 202 205 218 222 223 225 224 226 224 228 247 256 256 264 246 234 239 236 234 231 233 232 233 227 226 223 218 217 211 208 204 203 200 193 196 200 202 212 216 216 220 223 227 233 238 242 240 237 236 235 232 231 224 218 207 207 208 216 213 222 223 218 219 217 215 213 212 211 214 216 217
187 187 194 197 203 206 210 208 199 198 200 207 201 205 205 204 210 213 222 229 229 215 221 200 224 272 288 283 281 258 247 244 242 238 234 234 228 228 228 224 222 215 213 205 201 198 202 201 194 193 196 198 213 219 219 220 223 227 230 237 240 237 234 235 240 240 234 227 209 202 203 207 212 218 224 221 219 223 219 219 218 216 214 220 221
189 189 193 195 198 202 207 209 205 205 207 202 201 204 203 203 199 215 212 221 233 204 203 166 223 214 229 298 283 263 241 235 236 238 236 234 228 227 224 222 221 217 214 205 202 197 198 205 199 190 193 195 202 207 216 221 221 222 225 232 236 235 234 235 238 240 241 227 223 217 222 204 206 212 219 225 223 224 221 221 221 221 218 220 226
189 193 195 198 201 202 207 205 207 203 201 203 202 206 206 204 202 207 208 219 228 222 205 191 203 157 152 338 277 286 288 241 242 237 232 232 225 226 222 222 218 210 206 205 202 200 200 202 204 202 199 192 196 203 205 206 209 214 221 226 233 234 235 236 237 242 247 229 228 228 224 199 204 208 216 223 226 223 223 223 221 221 222 223 228
194 195 199 202 202 205 205 206 205 200 201 202 203 208 202 204 204 208 199 210 212 224 210 200 176 138 199 205 232 185 298 259 220 232 221 228 219 224 214 218 213 209 197 199 201 196 202 200 205 206 205 203 193 198 201 201 207 208 213 218 221 231 238 239 239 242 246 237 231 232 220 202 203 209 216 219 226 225 221 223 225 225 226 227 227
197 196 200 202 201 203 204 206 203 201 200 203 204 206 201 201 202 204 204 207 209 207 218 193 198 191 174 147 221 261 224 248 195 266 201 220 225 217 211 207 203 199 195 207 202 197 198 204 207 205 206 206 206 199 194 199 199 205 211 213 215 221 231 237 237 241 246 245 233 228 220 206 204 205 215 213 221 225 223 224 224 222 225 228 231
201 200 198 200 202 203 203 201 203 201 202 205 204 200 203 202 202 203 209 211 203 191 210 216 201 207 218 216 155 178 188 282 56 276 299 223 216 211 205 202 196 192 199 206 210 213 200 203 203 206 206 208 208 206 194 185 191 196 199 207 210 216 222 229 233 234 242 245 238 224 219 210 204 205 211 215 223 226 225 226 229 227 225 226 231
203 202 201 202 204 204 204 204 203 204 203 204 205 204 203 203 198 203 208 204 204 212 202 200 208 228 219 230 245 221 171 129 233 303 305 303 240 215 226 204 190 187 195 206 209 210 216 204 201 201 206 206 205 205 199 189 187 194 196 194 204 210 214 218 224 230 236 241 241 228 221 217 210 206 203 211 223 227 227 226 228 231 230 229 229
203 203 203 201 203 205 206 205 205 206 202 206 207 204 201 204 202 205 204 204 204 213 207 182 191 218 207 221 228 245 227 226 217 192 207 285 294 306 274 204 202 209 200 202 204 206 211 213 209 206 207 206 203 203 199 198 194 194 197 196 198 202 209 211 215 220 229 240 244 244 227 221 220 219 212 210 213 214 219 221 225 230 232 233 233
206 205 204 201 199 204 204 207 208 208 206 210 208 202 202 200 199 201 204 205 205 210 206 208 196 209 176 220 216 225 234 237 229 208 230 231 262 205 234 269 237 229 221 215 211 207 207 210 210 209 206 208 203 200 198 197 199 191 199 197 201 203 207 209 211 213 219 230 242 248 245 230 224 225 219 216 217 219 216 215 217 222 230 232 233
207 206 205 204 199 200 203 207 210 210 209 213 208 204 204 205 204 204 204 206 205 203 208 209 208 197 193 183 200 206 219 234 223 212 231 217 242 235 189 192 220 230 211 216 218 219 213 212 215 216 214 208 201 198 196 199 198 194 200 200 205 207 207 207 208 207 212 219 228 238 241 240 235 233 232 227 223 218 219 218 218 219 223 230 235
203 206 207 205 204 201 204 206 208 209 210 212 209 206 205 206 208 207 206 205 203 203 207 209 209 204 194 192 199 194 197 199 204 199 204 208 219 251 233 208 207 227 229 208 213 221 222 222 225 227 213 204 201 194 197 202 200 201 201 202 206 207 206 204 202 202 203 210 220 226 231 233 234 233 230 226 221 227 226 221 221 222 221 223 231
201 207 208 206 204 203 205 207 207 207 210 210 210 206 204 205 207 209 209 206 204 203 206 208 207 211 210 199 203 200 206 209 201 196 196 213 203 232 225 205 251 223 226 211 227 224 226 227 228 229 213 201 197 196 201 201 207 208 204 206 206 207 206 207 203 201 201 204 213 222 228 232 233 230 228 224 223 224 225 227 228 224 224 224 225
205 206 209 204 202 205 204 205 208 210 209 205 210 207 202 203 207 209 207 204 204 202 205 209 203 208 212 211 204 199 210 206 194 198 207 200 198 228 232 172 212 238 230 202 237 223 214 220 222 222 206 197 198 201 202 201 207 212 206 209 207 206 208 210 209 205 202 202 207 215 223 230 234 234 229 224 223 227 225 223 227 235 230 230 231
205 207 205 199 203 209 208 210 212 212 211 210 209 209 207 206 207 210 212 209 203 205 210 209 209 215 209 214 218 216 212 193 200 195 198 187 206 213 200 217 195 224 244 212 234 230 251 219 218 204 197 193 200 201 202 206 210 214 204 205 209 208 208 210 212 210 206 204 204 209 216 224 230 234 235 232 227 226 227 226 224 229 237 241 244
208 208 197 198 204 205 208 210 209 211 211 214 214 211 210 211 212 215 216 214 207 205 210 207 210 210 209 214 219 226 222 205 195 205 192 202 201 193 174 198 238 223 238 244 254 222 211 246 212 205 199 197 199 198 201 203 210 206 197 204 205 211 210 212 213 214 212 207 205 207 212 217 223 229 231 232 234 232 230 230 231 230 231 233 233
212 205 202 196 199 203 205 208 208 208 208 210 212 211 210 211 214 214 217 212 212 207 209 206 214 210 211 213 215 226 221 216 210 208 202 197 190 177 180 189 195 229 212 242 239 248 203 227 263 220 205 202 202 198 198 199 204 203 187 195 203 207 212 213 215 217 218 214 207 206 208 212 216 222 226 227 228 231 237 240 239 246 236 216 197
214 209 203 198 199 200 202 204 205 205 206 206 207 208 207 209 213 214 217 213 213 214 207 209 214 211 213 212 216 220 222 219 220 213 204 193 191 181 182 190 185 195 203 223 234 233 228 205 212 250 199 200 201 198 189 198 199 182 184 193 200 200 207 213 215 219 220 219 215 209 207 209 213 217 220 222 224 224 225 222 218 217 230 243 252
214 209 206 200 199 198 200 202 203 201 204 204 205 207 204 207 210 215 216 210 213 219 217 213 214 211 214 216 217 221 216 213 220 211 203 193 186 190 189 184 175 199 199 213 245 197 204 219 205 232 224 209 198 192 185 192 185 173 183 192 198 203 198 205 215 220 223 224 223 218 212 211 212 214 218 220 220 222 223 223 217 218 222 230 235
214 212 206 202 200 199 199 200 199 200 201 202 201 205 205 207 206 211 210 209 211 216 218 214 217 211 213 217 217 222 214 215 215 213 207 195 195 189 196 186 198 205 206 206 243 245 181 202 221 219 208 206 189 175 178 182 182 179 182 194 200 202 197 204 212 221 226 230 233 232 228 222 216 216 218 221 223 225 226 224 223 226 229 233 238
216 211 208 206 202 199 200 200 199 199 199 201 199 202 204 209 206 208 208 205 210 215 215 213 214 214 213 216 216 218 214 213 215 212 210 207 198 197 197 198 205 208 206 217 229 245 222 188 207 216 199 175 170 161 174 170 184 182 184 192 197 192 200 199 216 222 224 229 232 234 235 232 230 226 223 224 228 231 230 229 227 228 231 234 239
215 213 212 208 204 202 198 199 199 199 199 200 199 200 202 205 209 209 205 204 209 214 212 214 215 216 216 218 217 216 207 211 214 211 210 205 201 204 200 203 210 207 207 215 227 237 242 241 202 203 185 152 181 176 167 171 177 201 189 180 167 183 179 173 176 219 230 232 235 238 237 235 232 232 230 229 230 234 236 233 231 231 235 231 209
216 218 214 211 207 203 201 200 201 201 201 201 199 198 200 202 207 207 206 205 209 212 211 215 213 214 216 219 220 215 206 210 210 211 209 202 202 203 206 205 212 214 207 211 221 220 224 224 242 257 167 184 180 194 178 178 197 181 185 159 120 137 151 131 115 125 215 243 251 255 261 253 251 243 235 232 233 230 225 209 180 121 115 116 114
218 220 215 212 210 205 205 203 201 203 203 203 201 199 201 201 204 206 206 204 206 209 211 215 213 210 213 217 220 214 207 210 211 212 204 207 201 205 209 207 213 212 205 206 202 218 218 220 203 205 193 203 198 198 200 189 172 171 170 178 160 135 120 132 147 145 167 201 225 238 245 252 253 248 243 231 217 209 191 148 135 131 124 121 125
218 217 214 212 209 206 207 205 204 204 204 204 203 203 202 202 204 206 205 205 207 209 211 214 213 210 212 214 218 212 206 211 214 211 205 204 204 207 207 210 212 210 202 202 210 213 194 202 224 197 208 190 237 144 156 119 144 156 165 154 158 155 144 141 148 150 163 182 209 230 240 246 249 253 254 253 238 222 181 144 140 139 136 131 131
219 215 216 211 209 207 209 208 208 208 206 204 205 206 206 205 206 207 206 207 208 210 212 213 211 211 212 214 215 206 205 213 214 213 207 206 206 204 207 206 208 206 202 202 210 211 214 219 222 220 195 182 141 150 159 143 109 100 92 136 181 167 156 166 161 165 174 187 200 225 227 226 237 241 250 249 235 171 132 129 128 131 131 129 127
218 217 213 209 210 210 211 211 210 210 207 207 208 208 206 206 208 210 209 209 211 212 213 213 211 210 212 214 211 205 206 210 214 210 206 208 204 208 208 208 206 201 206 209 205 208 215 217 208 196 188 168 180 172 203 163 152 143 120 86 68 155 152 143 154 133 116 125 122 112 118 144 156 175 179 165 160 181 184 177 152 129 122 127 140
216 215 212 209 211 211 213 210 209 207 208 209 210 209 207 206 208 210 211 211 212 214 216 215 214 212 213 213 211 207 209 210 210 206 203 203 203 209 207 206 198 194 200 201 196 207 212 213 208 191 183 215 161 191 235 125 132 149 163 151 229 282 206 154 139 80 106 115 89 98 99 130 144 149 171 174 136 125 129 121 108 113 120 142 167
214 211 208 209 209 207 211 209 210 206 209 210 211 210 208 207 208 211 210 211 212 214 216 216 215 214 213 213 213 212 211 211 208 205 197 202 199 208 206 201 194 195 202 200 201 206 209 209 199 195 182 177 149 44 54 82 110 312 207 180 201 198 211 189 170 156 177 153 149 75 52 71 72 76 84 89 97 104 100 93 81 91 114 179 220
214 212 208 205 205 208 210 207 208 207 211 212 209 208 209 210 209 210 210 211 210 212 214 215 215 215 215 215 215 214 212 211 206 201 199 196 198 206 204 194 195 198 206 204 205 204 206 199 210 185 175 186 190 155 145 176 195 205 183 177 210 169 154 149 156 131 149 150 150 128 166 158 134 139 141 135 179 166 150 148 133 151 183 223 229
216 211 209 209 207 207 207 208 208 209 213 213 210 207 206 209 210 213 212 212 210 211 212 213 214 213 214 216 216 213 209 204 199 198 198 199 203 204 196 191 193 198 202 203 203 199 189 200 208 180 192 207 188 193 188 210 190 112 130 167 181 143 109 97 47 264 164 136 150 159 189 167 149 145 138 134 128 125 116 118 132 113 119 114 107
219 217 214 217 217 212 209 208 209 211 212 212 208 206 208 209 209 212 212 214 213 213 213 212 214 213 216 215 215 209 206 200 200 199 202 205 205 206 200 193 192 194 198 201 206 193 191 205 196 190 205 207 203 190 207 190 176 183 176 174 164 145 160 159 195 282 217 163 172 128 137 178 151 139 139 123 112 83 82 91 95 91 98 113 133
228 223 224 225 225 221 219 218 217 216 217 213 206 208 208 210 209 211 212 213 211 214 213 213 214 213 214 214 214 207 202 201 197 201 205 207 205 203 202 198 197 200 199 197 197 198 197 193 191 205 195 211 196 188 203 164 188 185 180 159 170 173 172 193 186 189 191 164 161 130 137 139 105 121 106 99 95 100 100 103 107 118 126 136 142
229 226 229 226 229 228 225 227 228 224 225 216 210 210 210 212 212 210 213 211 208 211 209 210 211 211 209 211 213 208 204 197 196 200 200 209 212 207 205 205 205 204 206 203 194 191 184 196 199 204 202 191 187 205 193 194 169 179 162 165 172 183 186 190 193 140 175 171 136 119 146 198 133 118 113 104 102 94 89 105 119 122 125 126 130
240 238 232 231 232 227 225 228 233 234 232 221 210 210 211 212 211 208 218 212 212 211 209 207 210 211 209 208 209 209 198 191 198 200 200 202 199 208 214 213 210 212 210 205 202 199 190 198 199 210 207 181 199 197 197 166 162 184 172 189 177 178 189 191 146 142 148 168 168 138 105 178 164 129 122 118 110 99 110 120 120 121 123 126 127
245 240 237 237 236 235 233 230 233 235 235 221 211 210 207 206 206 205 221 220 218 215 210 209 209 209 208 208 207 206 196 194 194 191 191 190 191 200 206 209 209 201 205 215 212 205 199 206 204 208 198 196 203 193 177 180 186 187 185 188 182 173 120 82 63 71 118 171 201 122 145 174 169 124 130 133 112 87 46 99 116 117 115 111 110
271 269 257 244 240 237 237 236 235 236 232 218 219 217 210 204 199 206 217 220 223 221 217 213 212 210 208 206 205 203 198 199 193 190 191 183 187 196 202 208 206 202 213 219 214 204 199 199 198 198 197 195 194 182 174 182 177 115 86 81 93 115 132 136 143 173 173 207 192 156 119 166 173 128 133 143 112 97 70 71 115 114 115 111 104
265 259 258 252 248 244 241 238 240 244 240 219 214 216 214 208 200 214 214 220 223 222 222 218 216 213 209 206 202 202 197 198 190 191 195 183 195 192 196 201 201 193 212 193 154 177 181 186 186 187 180 186 185 180 176 172 162 147 122 125 156 152 148 155 147 165 199 176 221 171 123 149 177 131 130 133 111 112 103 77 75 100 102 106 108
259 259 262 261 256 250 244 238 231 240 241 223 215 217 211 208 204 213 216 219 226 224 227 221 218 216 212 202 198 198 197 200 185 188 188 186 193 190 191 190 193 200 203 152 104 76 109 134 155 165 174 177 181 184 177 167 157 152 153 175 176 166 177 172 168 179 130 174 208 167 120 173 144 131 115 108 72 62 105 109 94 92 94 102 110
262 266 259 260 262 255 251 251 241 237 242 226 212 214 213 210 206 215 213 216 223 224 220 223 218 217 214 205 200 199 198 187 181 188 188 186 195 186 189 180 192 202 198 162 159 146 147 135 120 121 123 160 162 165 179 172 167 173 182 173 157 172 172 173 149 124 87 250 214 176 144 173 147 177 136 119 76 83 161 174 135 108 98 77 89